Time,TemperatureF,DewpointF,PressureIn,WindDirection,WindDirectionDegrees,WindSpeedMPH,WindSpeedGustMPH,Humidity,HourlyPrecipIn,Conditions,Clouds,dailyrainin,SoftwareType,DateUTC
2013-03-02 00:02:00,38.2,32.6,30.30,South,180,0.9,1.6,80,0.00,,,0.00,WUHU216HW,2013-03-02 08:02:00,
2013-03-02 00:07:00,38.2,32.6,30.30,South,180,0.2,1.6,80,0.00,,,0.00,WUHU216HW,2013-03-02 08:07:00,
2013-03-02 00:12:00,38.2,32.6,30.30,South,180,0.0,0.7,80,0.00,,,0.00,WUHU216HW,2013-03-02 08:12:00,
2013-03-02 00:17:00,38.0,32.4,30.30,South,180,0.0,0.0,80,0.00,,,0.00,WUHU216HW,2013-03-02 08:17:00,
2013-03-02 00:22:00,37.8,32.2,30.30,South,180,0.0,0.0,80,0.00,,,0.00,WUHU216HW,2013-03-02 08:22:00,
2013-03-02 00:27:00,37.4,32.4,30.30,South,180,0.2,0.7,82,0.00,,,0.00,WUHU216HW,2013-03-02 08:27:00,
2013-03-02 00:32:00,37.4,32.4,30.30,South,180,0.0,0.7,82,0.00,,,0.00,WUHU216HW,2013-03-02 08:32:00,
2013-03-02 00:37:00,37.3,32.6,30.30,South,180,0.7,0.9,83,0.00,,,0.00,WUHU216HW,2013-03-02 08:37:00,
2013-03-02 00:42:00,37.3,32.2,30.30,South,180,0.7,0.9,82,0.00,,,0.00,WUHU216HW,2013-03-02 08:42:00,
2013-03-02 00:47:00,37.3,32.2,30.29,South,180,0.4,0.7,82,0.00,,,0.00,WUHU216HW,2013-03-02 08:47:00,
2013-03-02 00:52:00,37.4,32.1,30.29,South,180,0.0,0.4,81,0.00,,,0.00,WUHU216HW,2013-03-02 08:52:00,
2013-03-02 00:57:00,37.4,32.1,30.29,South,180,0.0,0.0,81,0.00,,,0.00,WUHU216HW,2013-03-02 08:57:00,
2013-03-02 01:02:00,37.4,31.9,30.29,South,180,0.9,0.9,80,0.00,,,0.00,WUHU216HW,2013-03-02 09:02:00,
2013-03-02 01:07:00,37.3,31.7,30.29,South,180,0.0,0.9,80,0.00,,,0.00,WUHU216HW,2013-03-02 09:07:00,
2013-03-02 01:12:00,37.3,31.7,30.29,South,180,0.0,0.7,80,0.00,,,0.00,WUHU216HW,2013-03-02 09:12:00,
2013-03-02 01:17:00,37.1,31.5,30.29,South,180,0.0,0.2,80,0.00,,,0.00,WUHU216HW,2013-03-02 09:17:00,
2013-03-02 01:22:00,37.1,31.8,30.29,South,180,1.3,1.3,81,0.00,,,0.00,WUHU216HW,2013-03-02 09:22:00,
2013-03-02 01:27:00,36.5,31.5,30.29,SSE,158,0.4,1.6,82,0.00,,,0.00,WUHU216HW,2013-03-02 09:27:00,
2013-03-02 01:32:00,36.5,31.5,30.29,SSE,158,0.0,1.6,82,0.00,,,0.00,WUHU216HW,2013-03-02 09:32:00,
2013-03-02 01:37:00,36.5,31.5,30.29,SSE,158,0.7,1.1,82,0.00,,,0.00,WUHU216HW,2013-03-02 09:37:00,
2013-03-02 01:42:00,36.7,31.7,30.29,SSE,158,0.7,1.1,82,0.00,,,0.00,WUHU216HW,2013-03-02 09:42:00,
2013-03-02 01:47:00,36.9,31.6,30.28,SSE,158,0.0,0.7,81,0.00,,,0.00,WUHU216HW,2013-03-02 09:47:00,
2013-03-02 01:52:00,36.7,31.7,30.28,SSE,158,0.7,1.1,82,0.00,,,0.00,WUHU216HW,2013-03-02 09:52:00,
2013-03-02 01:57:00,36.5,31.5,30.27,SSE,158,0.7,1.1,82,0.00,,,0.00,WUHU216HW,2013-03-02 09:57:00,
2013-03-02 02:02:00,36.5,31.2,30.28,SSE,158,0.2,0.9,81,0.00,,,0.00,WUHU216HW,2013-03-02 10:02:00,
2013-03-02 02:07:00,36.5,31.2,30.27,SSE,158,0.7,0.9,81,0.00,,,0.00,WUHU216HW,2013-03-02 10:07:00,
2013-03-02 02:12:00,36.5,31.2,30.27,SSE,158,0.4,0.9,81,0.00,,,0.00,WUHU216HW,2013-03-02 10:12:00,
2013-03-02 02:17:00,36.4,30.8,30.27,SSE,158,0.0,0.9,80,0.00,,,0.00,WUHU216HW,2013-03-02 10:17:00,
2013-03-02 02:22:00,36.2,30.9,30.27,SSE,158,0.2,0.9,81,0.00,,,0.00,WUHU216HW,2013-03-02 10:22:00,
2013-03-02 02:27:00,36.0,31.0,30.27,SSE,158,0.0,0.9,82,0.00,,,0.00,WUHU216HW,2013-03-02 10:27:00,
2013-03-02 02:32:00,35.8,30.8,30.26,SSE,158,0.0,0.4,82,0.00,,,0.00,WUHU216HW,2013-03-02 10:32:00,
2013-03-02 02:37:00,36.0,31.0,30.26,SSE,158,0.0,0.4,82,0.00,,,0.00,WUHU216HW,2013-03-02 10:37:00,
2013-03-02 02:43:00,36.2,31.1,30.26,SSE,158,0.0,0.0,82,0.00,,,0.00,WUHU216HW,2013-03-02 10:43:00,
2013-03-02 02:48:00,36.2,31.1,30.25,SSE,158,0.0,0.7,82,0.00,,,0.00,WUHU216HW,2013-03-02 10:48:00,
2013-03-02 02:53:00,36.4,31.1,30.26,SSE,158,0.9,0.9,81,0.00,,,0.00,WUHU216HW,2013-03-02 10:53:00,
2013-03-02 02:58:00,36.4,31.1,30.26,SSE,158,0.0,0.9,81,0.00,,,0.00,WUHU216HW,2013-03-02 10:58:00,
2013-03-02 03:03:00,36.4,31.1,30.25,SSE,158,0.0,0.2,81,0.00,,,0.00,WUHU216HW,2013-03-02 11:03:00,
2013-03-02 03:08:00,36.4,30.8,30.25,SSE,158,0.0,0.0,80,0.00,,,0.00,WUHU216HW,2013-03-02 11:08:00,
2013-03-02 03:13:00,36.4,31.1,30.25,SSE,158,0.4,0.4,81,0.00,,,0.00,WUHU216HW,2013-03-02 11:13:00,
2013-03-02 03:18:00,36.4,31.1,30.24,SSE,158,0.9,1.1,81,0.00,,,0.00,WUHU216HW,2013-03-02 11:18:00,
2013-03-02 03:23:00,36.7,31.4,30.24,SSE,158,1.1,1.1,81,0.00,,,0.00,WUHU216HW,2013-03-02 11:23:00,
2013-03-02 03:28:00,36.9,31.6,30.24,SSE,158,0.9,1.3,81,0.00,,,0.00,WUHU216HW,2013-03-02 11:28:00,
2013-03-02 03:33:00,37.1,31.5,30.24,SSE,158,0.7,1.3,80,0.00,,,0.00,WUHU216HW,2013-03-02 11:33:00,
2013-03-02 03:38:00,37.3,31.7,30.24,SSE,158,0.0,1.1,80,0.00,,,0.00,WUHU216HW,2013-03-02 11:38:00,
2013-03-02 03:43:00,37.3,31.7,30.23,SSE,158,0.4,0.9,80,0.00,,,0.00,WUHU216HW,2013-03-02 11:43:00,
2013-03-02 03:48:00,37.1,31.5,30.23,SSE,158,0.0,0.4,80,0.00,,,0.00,WUHU216HW,2013-03-02 11:48:00,
2013-03-02 03:52:00,37.1,31.5,30.24,SSE,158,0.9,1.1,80,0.00,,,0.00,WUHU216HW,2013-03-02 11:52:00,
2013-03-02 03:57:00,36.9,31.3,30.23,SSE,158,0.2,1.1,80,0.00,,,0.00,WUHU216HW,2013-03-02 11:57:00,
2013-03-02 04:02:00,36.7,31.1,30.24,SSE,158,0.4,0.7,80,0.00,,,0.00,WUHU216HW,2013-03-02 12:02:00,
2013-03-02 04:07:00,36.5,31.0,30.23,SSE,158,0.0,0.4,80,0.00,,,0.00,WUHU216HW,2013-03-02 12:07:00,
2013-03-02 04:13:00,36.4,31.1,30.23,SSE,158,0.7,0.7,81,0.00,,,0.00,WUHU216HW,2013-03-02 12:13:00,
2013-03-02 04:18:00,36.2,31.1,30.23,SSE,158,0.2,1.1,82,0.00,,,0.00,WUHU216HW,2013-03-02 12:18:00,
2013-03-02 04:23:00,36.4,31.1,30.24,SSE,158,0.4,1.1,81,0.00,,,0.00,WUHU216HW,2013-03-02 12:23:00,
2013-03-02 04:28:00,36.4,31.1,30.24,SSE,158,0.0,0.4,81,0.00,,,0.00,WUHU216HW,2013-03-02 12:28:00,
2013-03-02 04:33:00,36.4,31.1,30.24,SSE,158,0.0,0.0,81,0.00,,,0.00,WUHU216HW,2013-03-02 12:33:00,
2013-03-02 04:37:00,36.5,31.0,30.24,SSE,158,0.0,0.0,80,0.00,,,0.00,WUHU216HW,2013-03-02 12:37:00,
2013-03-02 04:42:00,36.5,31.0,30.24,SSE,158,0.0,0.0,80,0.00,,,0.00,WUHU216HW,2013-03-02 12:42:00,
2013-03-02 04:47:00,36.7,31.1,30.23,SSE,158,1.1,1.3,80,0.00,,,0.00,WUHU216HW,2013-03-02 12:47:00,
2013-03-02 04:52:00,36.7,31.1,30.23,SSE,158,0.7,1.3,80,0.00,,,0.00,WUHU216HW,2013-03-02 12:52:00,
2013-03-02 04:57:00,36.9,31.6,30.23,SSE,158,1.8,1.8,81,0.00,,,0.00,WUHU216HW,2013-03-02 12:57:00,
2013-03-02 05:02:00,37.3,32.0,30.22,ESE,113,1.6,2.5,81,0.00,,,0.00,WUHU216HW,2013-03-02 13:02:00,
2013-03-02 05:07:00,37.8,32.2,30.22,SE,135,0.9,2.5,80,0.00,,,0.00,WUHU216HW,2013-03-02 13:07:00,
2013-03-02 05:12:00,38.0,32.0,30.23,SE,135,0.7,2.2,79,0.00,,,0.00,WUHU216HW,2013-03-02 13:12:00,
2013-03-02 05:17:00,37.6,31.7,30.23,SE,135,0.7,0.9,79,0.00,,,0.00,WUHU216HW,2013-03-02 13:17:00,
2013-03-02 05:22:00,37.4,31.5,30.22,SE,135,0.0,0.9,79,0.00,,,0.00,WUHU216HW,2013-03-02 13:22:00,
2013-03-02 05:27:00,37.4,31.5,30.22,SE,135,0.4,0.4,79,0.00,,,0.00,WUHU216HW,2013-03-02 13:27:00,
2013-03-02 05:32:00,36.9,31.3,30.22,West,270,1.3,1.8,80,0.00,,,0.00,WUHU216HW,2013-03-02 13:32:00,
2013-03-02 05:37:00,36.5,31.0,30.22,West,270,0.7,1.8,80,0.00,,,0.00,WUHU216HW,2013-03-02 13:37:00,
2013-03-02 05:42:00,36.5,31.0,30.22,WSW,248,1.1,1.6,80,0.00,,,0.00,WUHU216HW,2013-03-02 13:42:00,
2013-03-02 05:47:00,36.4,31.1,30.22,WSW,248,0.2,1.1,81,0.00,,,0.00,WUHU216HW,2013-03-02 13:47:00,
2013-03-02 05:52:00,36.4,30.8,30.22,WSW,248,0.0,1.1,80,0.00,,,0.00,WUHU216HW,2013-03-02 13:52:00,
2013-03-02 05:57:00,36.4,30.8,30.22,WSW,248,0.0,0.4,80,0.00,,,0.00,WUHU216HW,2013-03-02 13:57:00,
2013-03-02 06:02:00,36.0,30.7,30.22,WSW,248,0.4,1.6,81,0.00,,,0.00,WUHU216HW,2013-03-02 14:02:00,
2013-03-02 06:07:00,36.0,31.0,30.21,WSW,248,0.0,1.6,82,0.00,,,0.00,WUHU216HW,2013-03-02 14:07:00,
2013-03-02 06:12:00,36.2,31.1,30.22,WSW,248,1.1,1.1,82,0.00,,,0.00,WUHU216HW,2013-03-02 14:12:00,
2013-03-02 06:17:00,36.2,31.1,30.22,WSW,248,0.4,1.1,82,0.00,,,0.00,WUHU216HW,2013-03-02 14:17:00,
2013-03-02 06:22:00,36.4,31.1,30.22,WSW,248,0.0,1.1,81,0.00,,,0.00,WUHU216HW,2013-03-02 14:22:00,
2013-03-02 06:27:00,36.4,31.3,30.22,WSW,248,0.0,0.0,82,0.00,,,0.00,WUHU216HW,2013-03-02 14:27:00,
2013-03-02 06:32:00,36.5,31.2,30.22,WSW,248,0.0,0.0,81,0.00,,,0.00,WUHU216HW,2013-03-02 14:32:00,
2013-03-02 06:37:00,36.7,31.4,30.21,WSW,248,0.0,0.0,81,0.00,,,0.00,WUHU216HW,2013-03-02 14:37:00,
2013-03-02 06:42:00,36.7,31.4,30.21,WSW,248,0.0,0.4,81,0.00,,,0.00,WUHU216HW,2013-03-02 14:42:00,
2013-03-02 06:47:00,36.9,31.6,30.21,WSW,248,0.0,0.4,81,0.00,,,0.00,WUHU216HW,2013-03-02 14:47:00,
2013-03-02 06:52:00,36.9,31.6,30.21,WSW,248,0.2,0.9,81,0.00,,,0.00,WUHU216HW,2013-03-02 14:52:00,
2013-03-02 06:57:00,37.1,31.5,30.21,WSW,248,0.0,0.9,80,0.00,,,0.00,WUHU216HW,2013-03-02 14:57:00,
2013-03-02 07:02:00,37.1,31.5,30.20,WSW,248,0.7,0.7,80,0.00,,,0.00,WUHU216HW,2013-03-02 15:02:00,
2013-03-02 07:07:00,37.1,31.5,30.20,WSW,248,0.0,0.7,80,0.00,,,0.00,WUHU216HW,2013-03-02 15:07:00,
2013-03-02 07:12:00,37.1,31.5,30.21,WSW,248,0.4,0.7,80,0.00,,,0.00,WUHU216HW,2013-03-02 15:12:00,
2013-03-02 07:17:00,37.3,31.7,30.20,SW,225,0.0,1.3,80,0.00,,,0.00,WUHU216HW,2013-03-02 15:17:00,
2013-03-02 07:22:00,37.4,31.9,30.20,SW,225,0.0,1.3,80,0.00,,,0.00,WUHU216HW,2013-03-02 15:22:00,
2013-03-02 07:27:00,37.4,32.1,30.20,SW,225,0.0,0.7,81,0.00,,,0.00,WUHU216HW,2013-03-02 15:27:00,
2013-03-02 07:32:00,37.3,31.7,30.20,SW,225,0.0,0.7,80,0.00,,,0.00,WUHU216HW,2013-03-02 15:32:00,
2013-03-02 07:37:00,37.3,32.0,30.19,SW,225,0.4,1.1,81,0.00,,,0.00,WUHU216HW,2013-03-02 15:37:00,
2013-03-02 07:42:00,37.4,32.1,30.20,South,180,2.5,2.5,81,0.00,,,0.00,WUHU216HW,2013-03-02 15:42:00,
2013-03-02 07:47:00,37.6,32.3,30.20,South,180,0.4,2.7,81,0.00,,,0.00,WUHU216HW,2013-03-02 15:47:00,
2013-03-02 07:52:00,37.4,31.9,30.20,South,180,0.2,2.7,80,0.00,,,0.00,WUHU216HW,2013-03-02 15:52:00,
2013-03-02 07:57:00,37.6,32.0,30.20,South,180,0.0,0.9,80,0.00,,,0.00,WUHU216HW,2013-03-02 15:57:00,
2013-03-02 08:02:00,37.8,32.5,30.20,South,180,0.4,0.9,81,0.00,,,0.00,WUHU216HW,2013-03-02 16:02:00,
2013-03-02 08:07:00,37.8,32.5,30.21,South,180,0.4,1.3,81,0.00,,,0.00,WUHU216HW,2013-03-02 16:07:00,
2013-03-02 08:12:00,38.0,32.4,30.20,South,180,0.0,1.3,80,0.00,,,0.00,WUHU216HW,2013-03-02 16:12:00,
2013-03-02 08:17:00,38.2,32.6,30.20,SSE,158,1.6,1.6,80,0.00,,,0.00,WUHU216HW,2013-03-02 16:17:00,
2013-03-02 08:22:00,38.5,32.9,30.20,South,180,1.3,1.6,80,0.00,,,0.00,WUHU216HW,2013-03-02 16:22:00,
2013-03-02 08:27:00,39.2,33.7,30.19,South,180,1.8,1.8,80,0.00,,,0.00,WUHU216HW,2013-03-02 16:27:00,
2013-03-02 08:32:00,39.8,33.9,30.20,South,180,0.4,1.8,79,0.00,,,0.00,WUHU216HW,2013-03-02 16:32:00,
2013-03-02 08:37:00,40.0,33.7,30.20,South,180,1.1,1.1,78,0.00,,,0.00,WUHU216HW,2013-03-02 16:37:00,
2013-03-02 08:42:00,40.3,33.7,30.20,South,180,0.7,1.3,77,0.00,,,0.00,WUHU216HW,2013-03-02 16:42:00,
2013-03-02 08:47:00,40.7,33.9,30.20,South,180,1.1,1.3,77,0.00,,,0.00,WUHU216HW,2013-03-02 16:47:00,
2013-03-02 08:52:00,41.0,34.3,30.20,South,180,0.0,1.1,77,0.00,,,0.00,WUHU216HW,2013-03-02 16:52:00,
2013-03-02 08:57:00,41.4,34.7,30.20,South,180,0.0,0.7,77,0.00,,,0.00,WUHU216HW,2013-03-02 16:57:00,
2013-03-02 09:02:00,41.9,34.9,30.20,South,180,0.0,0.4,76,0.00,,,0.00,WUHU216HW,2013-03-02 17:02:00,
2013-03-02 09:07:00,42.5,34.7,30.20,South,180,1.1,1.1,74,0.00,,,0.00,WUHU216HW,2013-03-02 17:07:00,
2013-03-02 09:12:00,43.2,35.5,30.20,SSW,203,1.1,2.2,74,0.00,,,0.00,WUHU216HW,2013-03-02 17:12:00,
2013-03-02 09:17:00,43.6,35.8,30.20,SSW,203,0.4,2.2,74,0.00,,,0.00,WUHU216HW,2013-03-02 17:17:00,
2013-03-02 09:22:00,43.9,35.8,30.20,SSW,203,0.2,1.8,73,0.00,,,0.00,WUHU216HW,2013-03-02 17:22:00,
2013-03-02 09:27:00,44.3,36.2,30.20,SSW,203,1.6,2.5,73,0.00,,,0.00,WUHU216HW,2013-03-02 17:27:00,
2013-03-02 09:32:00,44.5,36.0,30.20,SSW,203,0.0,2.5,72,0.00,,,0.00,WUHU216HW,2013-03-02 17:32:00,
2013-03-02 09:37:00,45.0,36.6,30.20,South,180,2.0,2.5,72,0.00,,,0.00,WUHU216HW,2013-03-02 17:37:00,
2013-03-02 09:42:00,45.2,36.7,30.20,SSW,203,1.3,2.5,72,0.00,,,0.00,WUHU216HW,2013-03-02 17:42:00,
2013-03-02 09:47:00,45.4,36.9,30.20,South,180,0.7,3.1,72,0.00,,,0.00,WUHU216HW,2013-03-02 17:47:00,
2013-03-02 09:52:00,45.7,37.3,30.20,SE,135,1.3,3.1,72,0.00,,,0.00,WUHU216HW,2013-03-02 17:52:00,
2013-03-02 09:57:00,46.1,37.3,30.20,South,180,0.9,2.5,71,0.00,,,0.00,WUHU216HW,2013-03-02 17:57:00,
2013-03-02 10:02:00,46.3,37.1,30.19,SSE,158,1.8,2.5,70,0.00,,,0.00,WUHU216HW,2013-03-02 18:02:00,
2013-03-02 10:07:00,46.4,37.3,30.19,SE,135,0.7,4.9,70,0.00,,,0.00,WUHU216HW,2013-03-02 18:07:00,
2013-03-02 10:12:00,46.8,37.2,30.19,South,180,1.8,4.9,69,0.00,,,0.00,WUHU216HW,2013-03-02 18:12:00,
2013-03-02 10:17:00,46.8,36.8,30.19,SSW,203,2.0,3.4,68,0.00,,,0.00,WUHU216HW,2013-03-02 18:17:00,
2013-03-02 10:22:00,46.8,37.2,30.19,South,180,4.7,4.7,69,0.00,,,0.00,WUHU216HW,2013-03-02 18:22:00,
2013-03-02 10:27:00,47.2,37.2,30.19,South,180,1.3,4.7,68,0.00,,,0.00,WUHU216HW,2013-03-02 18:27:00,
2013-03-02 10:32:00,47.5,37.4,30.18,SE,135,0.9,3.8,68,0.00,,,0.00,WUHU216HW,2013-03-02 18:32:00,
2013-03-02 10:37:00,47.9,37.8,30.18,South,180,1.3,4.0,68,0.00,,,0.00,WUHU216HW,2013-03-02 18:37:00,
2013-03-02 10:42:00,48.6,38.1,30.18,SSE,158,4.0,4.7,67,0.00,,,0.00,WUHU216HW,2013-03-02 18:42:00,
2013-03-02 10:47:00,48.8,37.9,30.18,ESE,113,4.9,4.9,66,0.00,,,0.00,WUHU216HW,2013-03-02 18:47:00,
2013-03-02 10:52:00,49.3,38.0,30.17,SSW,203,2.0,4.9,65,0.00,,,0.00,WUHU216HW,2013-03-02 18:52:00,
2013-03-02 10:57:00,49.9,38.2,30.17,SE,135,0.9,4.9,64,0.00,,,0.00,WUHU216HW,2013-03-02 18:57:00,
2013-03-02 11:02:00,50.4,38.6,30.17,South,180,5.1,5.1,64,0.00,,,0.00,WUHU216HW,2013-03-02 19:02:00,
2013-03-02 11:07:00,51.1,39.3,30.17,SSE,158,4.9,5.4,64,0.00,,,0.00,WUHU216HW,2013-03-02 19:07:00,
2013-03-02 11:12:00,51.7,38.6,30.17,SSE,158,4.5,5.4,61,0.00,,,0.00,WUHU216HW,2013-03-02 19:12:00,
2013-03-02 11:17:00,52.0,39.0,30.17,ESE,113,3.4,4.5,61,0.00,,,0.00,WUHU216HW,2013-03-02 19:17:00,
2013-03-02 11:22:00,52.2,39.2,30.17,South,180,1.3,4.5,61,0.00,,,0.00,WUHU216HW,2013-03-02 19:22:00,
2013-03-02 11:27:00,52.4,39.3,30.17,SSW,203,3.8,3.8,61,0.00,,,0.00,WUHU216HW,2013-03-02 19:27:00,
2013-03-02 11:32:00,52.7,38.8,30.17,East,90,6.7,6.7,59,0.00,,,0.00,WUHU216HW,2013-03-02 19:32:00,
2013-03-02 11:37:00,52.9,38.5,30.17,SE,135,3.4,6.7,58,0.00,,,0.00,WUHU216HW,2013-03-02 19:37:00,
2013-03-02 11:42:00,53.1,38.7,30.17,South,180,5.4,6.7,58,0.00,,,0.00,WUHU216HW,2013-03-02 19:42:00,
2013-03-02 11:47:00,53.3,38.4,30.16,East,90,6.5,6.5,57,0.00,,,0.00,WUHU216HW,2013-03-02 19:47:00,
2013-03-02 11:52:00,53.3,37.9,30.16,SE,135,6.3,6.5,56,0.00,,,0.00,WUHU216HW,2013-03-02 19:52:00,
2013-03-02 11:57:00,53.5,38.5,30.16,SE,135,4.0,6.3,57,0.00,,,0.00,WUHU216HW,2013-03-02 19:57:00,
2013-03-02 12:02:00,53.5,38.1,30.16,South,180,3.4,5.8,56,0.00,,,0.00,WUHU216HW,2013-03-02 20:02:00,
2013-03-02 12:07:00,53.6,38.3,30.16,SSE,158,2.5,6.9,56,0.00,,,0.00,WUHU216HW,2013-03-02 20:07:00,
2013-03-02 12:12:00,53.6,37.8,30.16,SSE,158,1.1,6.9,55,0.00,,,0.00,WUHU216HW,2013-03-02 20:12:00,
2013-03-02 12:17:00,54.0,38.2,30.16,SSE,158,3.6,4.7,55,0.00,,,0.00,WUHU216HW,2013-03-02 20:17:00,
2013-03-02 12:22:00,54.0,37.6,30.15,South,180,3.1,4.7,54,0.00,,,0.00,WUHU216HW,2013-03-02 20:22:00,
2013-03-02 12:27:00,54.4,37.5,30.15,South,180,1.1,3.8,53,0.00,,,0.00,WUHU216HW,2013-03-02 20:27:00,
2013-03-02 12:32:00,54.4,37.5,30.15,SSW,203,4.3,4.3,53,0.00,,,0.00,WUHU216HW,2013-03-02 20:32:00,
2013-03-02 12:37:00,54.5,37.7,30.15,SE,135,0.0,4.3,53,0.00,,,0.00,WUHU216HW,2013-03-02 20:37:00,
2013-03-02 12:42:00,55.1,37.7,30.15,South,180,2.5,2.9,52,0.00,,,0.00,WUHU216HW,2013-03-02 20:42:00,
2013-03-02 12:47:00,55.1,37.3,30.15,SSW,203,0.9,2.9,51,0.00,,,0.00,WUHU216HW,2013-03-02 20:47:00,
2013-03-02 12:52:00,55.3,36.9,30.15,SSW,203,2.2,3.8,50,0.00,,,0.00,WUHU216HW,2013-03-02 20:52:00,
2013-03-02 12:57:00,55.3,36.9,30.14,South,180,1.1,3.8,50,0.00,,,0.00,WUHU216HW,2013-03-02 20:57:00,
2013-03-02 13:02:00,55.4,37.1,30.14,South,180,2.2,3.4,50,0.00,,,0.00,WUHU216HW,2013-03-02 21:02:00,
2013-03-02 13:07:00,55.4,37.1,30.14,SSW,203,0.4,3.4,50,0.00,,,0.00,WUHU216HW,2013-03-02 21:07:00,
2013-03-02 13:12:00,55.4,37.1,30.14,SSW,203,1.1,1.3,50,0.00,,,0.00,WUHU216HW,2013-03-02 21:12:00,
2013-03-02 13:17:00,55.8,37.9,30.14,SSW,203,0.7,1.3,51,0.00,,,0.00,WUHU216HW,2013-03-02 21:17:00,
2013-03-02 13:22:00,56.0,37.6,30.13,SSE,158,1.3,1.3,50,0.00,,,0.00,WUHU216HW,2013-03-02 21:22:00,
2013-03-02 13:27:00,56.0,37.1,30.13,South,180,1.1,1.8,49,0.00,,,0.00,WUHU216HW,2013-03-02 21:27:00,
2013-03-02 13:32:00,56.0,37.1,30.13,South,180,0.2,1.8,49,0.00,,,0.00,WUHU216HW,2013-03-02 21:32:00,
2013-03-02 13:37:00,56.2,36.6,30.13,South,180,1.3,1.8,48,0.00,,,0.00,WUHU216HW,2013-03-02 21:37:00,
2013-03-02 13:42:00,56.2,37.3,30.13,South,180,0.4,1.3,49,0.00,,,0.00,WUHU216HW,2013-03-02 21:42:00,
2013-03-02 13:47:00,56.2,36.6,30.13,South,180,0.9,1.1,48,0.00,,,0.00,WUHU216HW,2013-03-02 21:47:00,
2013-03-02 13:52:00,56.2,37.3,30.12,ESE,113,2.2,2.2,49,0.00,,,0.00,WUHU216HW,2013-03-02 21:52:00,
2013-03-02 13:57:00,56.3,36.3,30.12,ESE,113,0.2,2.2,47,0.00,,,0.00,WUHU216HW,2013-03-02 21:57:00,
2013-03-02 14:02:00,56.3,36.8,30.12,ESE,113,0.0,1.8,48,0.00,,,0.00,WUHU216HW,2013-03-02 22:02:00,
2013-03-02 14:07:00,56.5,37.0,30.12,SW,225,1.8,2.7,48,0.00,,,0.00,WUHU216HW,2013-03-02 22:07:00,
2013-03-02 14:12:00,56.5,36.5,30.12,SW,225,0.7,2.7,47,0.00,,,0.00,WUHU216HW,2013-03-02 22:12:00,
2013-03-02 14:17:00,56.7,36.6,30.12,SW,225,1.1,2.0,47,0.00,,,0.00,WUHU216HW,2013-03-02 22:17:00,
2013-03-02 14:22:00,56.7,36.6,30.12,WSW,248,0.9,2.7,47,0.00,,,0.00,WUHU216HW,2013-03-02 22:22:00,
2013-03-02 14:27:00,56.7,37.2,30.12,North,0,4.0,4.0,48,0.00,,,0.00,WUHU216HW,2013-03-02 22:27:00,
2013-03-02 14:32:00,56.7,37.8,30.12,WNW,293,2.0,4.0,49,0.00,,,0.00,WUHU216HW,2013-03-02 22:32:00,
2013-03-02 14:37:00,56.5,37.0,30.12,WNW,293,2.7,3.4,48,0.00,,,0.00,WUHU216HW,2013-03-02 22:37:00,
2013-03-02 14:42:00,56.3,37.5,30.12,West,270,3.4,4.5,49,0.00,,,0.00,WUHU216HW,2013-03-02 22:42:00,
2013-03-02 14:47:00,56.3,37.5,30.12,WNW,293,1.8,4.5,49,0.00,,,0.00,WUHU216HW,2013-03-02 22:47:00,
2013-03-02 14:52:00,56.2,37.3,30.12,SW,225,2.9,3.8,49,0.00,,,0.00,WUHU216HW,2013-03-02 22:52:00,
2013-03-02 14:57:00,56.2,36.6,30.12,WSW,248,3.6,4.9,48,0.00,,,0.00,WUHU216HW,2013-03-02 22:57:00,
2013-03-02 15:02:00,56.2,36.6,30.12,WSW,248,1.8,4.9,48,0.00,,,0.00,WUHU216HW,2013-03-02 23:02:00,
2013-03-02 15:07:00,56.2,36.1,30.12,WNW,293,2.9,6.7,47,0.00,,,0.00,WUHU216HW,2013-03-02 23:07:00,
2013-03-02 15:12:00,56.2,36.6,30.12,West,270,6.7,6.7,48,0.00,,,0.00,WUHU216HW,2013-03-02 23:12:00,
2013-03-02 15:17:00,55.8,36.4,30.12,WSW,248,6.9,9.6,48,0.00,,,0.00,WUHU216HW,2013-03-02 23:17:00,
2013-03-02 15:22:00,55.4,36.6,30.12,WSW,248,4.5,9.6,49,0.00,,,0.00,WUHU216HW,2013-03-02 23:22:00,
2013-03-02 15:27:00,55.4,36.6,30.12,WSW,248,5.4,8.1,49,0.00,,,0.00,WUHU216HW,2013-03-02 23:27:00,
2013-03-02 15:32:00,55.3,36.4,30.12,West,270,5.1,6.9,49,0.00,,,0.00,WUHU216HW,2013-03-02 23:32:00,
2013-03-02 15:37:00,55.1,36.2,30.12,West,270,5.1,7.2,49,0.00,,,0.00,WUHU216HW,2013-03-02 23:37:00,
2013-03-02 15:42:00,54.9,36.0,30.12,West,270,4.7,7.4,49,0.00,,,0.00,WUHU216HW,2013-03-02 23:42:00,
2013-03-02 15:47:00,54.5,36.3,30.12,WSW,248,8.7,8.7,50,0.00,,,0.00,WUHU216HW,2013-03-02 23:47:00,
2013-03-02 15:52:00,54.4,35.6,30.12,NW,315,3.4,12.5,49,0.00,,,0.00,WUHU216HW,2013-03-02 23:52:00,
2013-03-02 15:57:00,54.0,35.8,30.12,WSW,248,7.2,12.5,50,0.00,,,0.00,WUHU216HW,2013-03-02 23:57:00,
2013-03-02 16:02:00,53.8,35.7,30.12,WNW,293,9.2,9.2,50,0.00,,,0.00,WUHU216HW,2013-03-03 00:02:00,
2013-03-02 16:07:00,53.5,35.7,30.12,WNW,293,9.8,9.8,51,0.00,,,0.00,WUHU216HW,2013-03-03 00:07:00,
2013-03-02 16:12:00,53.1,35.0,30.12,West,270,10.5,10.5,50,0.00,,,0.00,WUHU216HW,2013-03-03 00:12:00,
2013-03-02 16:17:00,52.9,34.8,30.12,WSW,248,14.3,14.3,50,0.00,,,0.00,WUHU216HW,2013-03-03 00:17:00,
2013-03-02 16:22:00,52.6,34.9,30.12,West,270,6.0,14.3,51,0.00,,,0.00,WUHU216HW,2013-03-03 00:22:00,
2013-03-02 16:27:00,52.4,35.3,30.12,WSW,248,12.8,13.6,52,0.00,,,0.00,WUHU216HW,2013-03-03 00:27:00,
2013-03-02 16:32:00,52.0,35.8,30.12,West,270,8.5,12.8,54,0.00,,,0.00,WUHU216HW,2013-03-03 00:32:00,
2013-03-02 16:37:00,51.8,36.1,30.12,SW,225,9.8,9.8,55,0.00,,,0.00,WUHU216HW,2013-03-03 00:37:00,
2013-03-02 16:42:00,51.5,36.6,30.12,West,270,8.5,11.2,57,0.00,,,0.00,WUHU216HW,2013-03-03 00:42:00,
2013-03-02 16:47:00,51.3,37.0,30.12,West,270,12.1,12.1,58,0.00,,,0.00,WUHU216HW,2013-03-03 00:47:00,
2013-03-02 16:52:00,51.1,37.3,30.12,West,270,12.8,12.8,59,0.00,,,0.00,WUHU216HW,2013-03-03 00:52:00,
2013-03-02 17:02:00,50.8,37.4,30.12,West,270,10.5,12.8,60,0.00,,,0.00,WUHU216HW,2013-03-03 01:02:00,
2013-03-02 17:07:00,50.4,37.1,30.12,WSW,248,11.0,11.0,60,0.00,,,0.00,WUHU216HW,2013-03-03 01:07:00,
2013-03-02 17:12:00,50.4,37.4,30.12,West,270,6.9,12.1,61,0.00,,,0.00,WUHU216HW,2013-03-03 01:12:00,
2013-03-02 17:17:00,50.0,37.1,30.12,WSW,248,4.5,12.1,61,0.00,,,0.00,WUHU216HW,2013-03-03 01:17:00,
2013-03-02 17:22:00,49.9,37.0,30.12,West,270,9.4,10.1,61,0.00,,,0.00,WUHU216HW,2013-03-03 01:22:00,
2013-03-02 17:27:00,49.5,37.0,30.12,West,270,5.4,10.1,62,0.00,,,0.00,WUHU216HW,2013-03-03 01:27:00,
2013-03-02 17:32:00,49.3,36.5,30.12,WNW,293,8.9,11.0,61,0.00,,,0.00,WUHU216HW,2013-03-03 01:32:00,
2013-03-02 17:37:00,49.3,36.5,30.12,SW,225,9.2,11.0,61,0.00,,,0.00,WUHU216HW,2013-03-03 01:37:00,
2013-03-02 17:42:00,49.1,36.3,30.12,WNW,293,12.5,12.5,61,0.00,,,0.00,WUHU216HW,2013-03-03 01:42:00,
2013-03-02 17:47:00,49.0,36.1,30.12,West,270,13.2,17.7,61,0.00,,,0.00,WUHU216HW,2013-03-03 01:47:00,
2013-03-02 17:52:00,48.6,35.8,30.12,West,270,9.2,17.7,61,0.00,,,0.00,WUHU216HW,2013-03-03 01:52:00,
2013-03-02 17:57:00,48.4,36.0,30.12,West,270,15.0,16.6,62,0.00,,,0.00,WUHU216HW,2013-03-03 01:57:00,
2013-03-02 18:02:00,48.4,36.0,30.12,West,270,7.6,15.0,62,0.00,,,0.00,WUHU216HW,2013-03-03 02:02:00,
2013-03-02 18:07:00,48.2,36.3,30.12,SW,225,6.3,13.6,63,0.00,,,0.00,WUHU216HW,2013-03-03 02:07:00,
2013-03-02 18:12:00,48.1,36.1,30.12,SW,225,5.4,13.6,63,0.00,,,0.00,WUHU216HW,2013-03-03 02:12:00,
2013-03-02 18:17:00,47.9,35.9,30.12,WSW,248,6.9,10.5,63,0.00,,,0.00,WUHU216HW,2013-03-03 02:17:00,
2013-03-02 18:22:00,47.7,36.1,30.12,WSW,248,12.1,12.1,64,0.00,,,0.00,WUHU216HW,2013-03-03 02:22:00,
2013-03-02 18:27:00,47.7,36.5,30.12,WNW,293,8.5,12.1,65,0.00,,,0.00,WUHU216HW,2013-03-03 02:27:00,
2013-03-02 18:32:00,47.5,36.3,30.12,WSW,248,8.5,8.9,65,0.00,,,0.00,WUHU216HW,2013-03-03 02:32:00,
2013-03-02 18:37:00,47.3,36.6,30.12,SW,225,9.2,11.2,66,0.00,,,0.00,WUHU216HW,2013-03-03 02:37:00,
2013-03-02 18:42:00,47.3,36.6,30.12,West,270,5.6,11.2,66,0.00,,,0.00,WUHU216HW,2013-03-03 02:42:00,
2013-03-02 18:47:00,47.2,36.4,30.12,West,270,5.4,10.3,66,0.00,,,0.00,WUHU216HW,2013-03-03 02:47:00,
2013-03-02 18:52:00,47.2,36.7,30.12,SW,225,7.6,9.8,67,0.00,,,0.00,WUHU216HW,2013-03-03 02:52:00,
2013-03-02 18:57:00,47.2,36.7,30.12,WSW,248,7.8,11.4,67,0.00,,,0.00,WUHU216HW,2013-03-03 02:57:00,
2013-03-02 19:02:00,47.2,36.7,30.12,WSW,248,8.9,11.4,67,0.00,,,0.00,WUHU216HW,2013-03-03 03:02:00,
2013-03-02 19:07:00,47.2,37.2,30.12,SW,225,7.8,12.1,68,0.00,,,0.00,WUHU216HW,2013-03-03 03:07:00,
2013-03-02 19:12:00,47.0,37.0,30.12,West,270,5.4,12.1,68,0.00,,,0.00,WUHU216HW,2013-03-03 03:12:00,
2013-03-02 19:17:00,47.0,37.0,30.12,WSW,248,8.7,8.7,68,0.00,,,0.00,WUHU216HW,2013-03-03 03:17:00,
2013-03-02 19:22:00,46.8,36.8,30.12,West,270,5.1,10.3,68,0.00,,,0.00,WUHU216HW,2013-03-03 03:22:00,
2013-03-02 19:27:00,46.8,36.8,30.12,West,270,7.4,10.3,68,0.00,,,0.00,WUHU216HW,2013-03-03 03:27:00,
2013-03-02 19:32:00,46.8,36.8,30.12,WSW,248,7.6,7.6,68,0.00,,,0.00,WUHU216HW,2013-03-03 03:32:00,
2013-03-02 19:37:00,46.8,36.8,30.13,SW,225,4.9,7.6,68,0.00,,,0.00,WUHU216HW,2013-03-03 03:37:00,
2013-03-02 19:42:00,46.6,36.6,30.12,WSW,248,9.4,11.6,68,0.00,,,0.00,WUHU216HW,2013-03-03 03:42:00,
2013-03-02 19:47:00,46.4,36.9,30.12,WSW,248,4.5,11.6,69,0.00,,,0.00,WUHU216HW,2013-03-03 03:47:00,
2013-03-02 19:52:00,46.3,36.7,30.12,WSW,248,7.2,11.4,69,0.00,,,0.00,WUHU216HW,2013-03-03 03:52:00,
2013-03-02 19:57:00,46.3,36.7,30.12,WSW,248,8.3,9.8,69,0.00,,,0.00,WUHU216HW,2013-03-03 03:57:00,
2013-03-02 20:02:00,45.9,36.7,30.12,WSW,248,4.3,9.6,70,0.00,,,0.00,WUHU216HW,2013-03-03 04:02:00,
2013-03-02 20:07:00,45.7,36.5,30.12,WSW,248,4.3,9.6,70,0.00,,,0.00,WUHU216HW,2013-03-03 04:07:00,
2013-03-02 20:12:00,45.7,36.5,30.12,WSW,248,4.0,6.5,70,0.00,,,0.00,WUHU216HW,2013-03-03 04:12:00,
2013-03-02 20:17:00,45.7,36.5,30.12,West,270,7.4,7.4,70,0.00,,,0.00,WUHU216HW,2013-03-03 04:17:00,
2013-03-02 20:22:00,45.7,36.9,30.12,WSW,248,4.5,7.4,71,0.00,,,0.00,WUHU216HW,2013-03-03 04:22:00,
2013-03-02 20:27:00,45.5,36.7,30.12,WSW,248,1.8,6.7,71,0.00,,,0.00,WUHU216HW,2013-03-03 04:27:00,
2013-03-02 20:32:00,45.4,36.6,30.12,WSW,248,0.9,4.7,71,0.00,,,0.00,WUHU216HW,2013-03-03 04:32:00,
2013-03-02 20:37:00,45.2,36.4,30.11,West,270,1.3,2.5,71,0.00,,,0.00,WUHU216HW,2013-03-03 04:37:00,
2013-03-02 20:42:00,45.0,36.2,30.11,NNW,338,1.8,2.5,71,0.00,,,0.00,WUHU216HW,2013-03-03 04:42:00,
2013-03-02 20:47:00,45.0,36.6,30.11,North,0,3.8,3.8,72,0.00,,,0.00,WUHU216HW,2013-03-03 04:47:00,
2013-03-02 20:52:00,44.8,36.4,30.11,NW,315,6.3,6.3,72,0.00,,,0.00,WUHU216HW,2013-03-03 04:52:00,
2013-03-02 20:57:00,45.2,36.4,30.11,WNW,293,2.0,6.9,71,0.00,,,0.00,WUHU216HW,2013-03-03 04:57:00,
2013-03-02 21:02:00,45.2,36.4,30.11,West,270,2.5,6.9,71,0.00,,,0.00,WUHU216HW,2013-03-03 05:02:00,
2013-03-02 21:07:00,45.2,36.4,30.11,West,270,1.8,5.6,71,0.00,,,0.00,WUHU216HW,2013-03-03 05:07:00,
2013-03-02 21:12:00,45.0,36.6,30.11,West,270,0.7,5.6,72,0.00,,,0.00,WUHU216HW,2013-03-03 05:12:00,
2013-03-02 21:17:00,44.8,36.4,30.11,West,270,1.6,2.2,72,0.00,,,0.00,WUHU216HW,2013-03-03 05:17:00,
2013-03-02 21:22:00,44.5,36.0,30.11,West,270,0.9,1.6,72,0.00,,,0.00,WUHU216HW,2013-03-03 05:22:00,
2013-03-02 21:27:00,44.5,36.0,30.11,West,270,0.9,1.1,72,0.00,,,0.00,WUHU216HW,2013-03-03 05:27:00,
2013-03-02 21:32:00,44.3,36.2,30.11,West,270,0.2,0.9,73,0.00,,,0.00,WUHU216HW,2013-03-03 05:32:00,
2013-03-02 21:37:00,44.1,36.0,30.11,SW,225,0.0,3.4,73,0.00,,,0.00,WUHU216HW,2013-03-03 05:37:00,
2013-03-02 21:42:00,43.9,36.2,30.11,West,270,2.0,3.4,74,0.00,,,0.00,WUHU216HW,2013-03-03 05:42:00,
2013-03-02 21:47:00,43.9,36.2,30.11,West,270,1.8,2.0,74,0.00,,,0.00,WUHU216HW,2013-03-03 05:47:00,
2013-03-02 21:52:00,43.9,36.2,30.11,SW,225,1.8,3.1,74,0.00,,,0.00,WUHU216HW,2013-03-03 05:52:00,
2013-03-02 21:57:00,43.9,36.2,30.11,SW,225,2.5,3.1,74,0.00,,,0.00,WUHU216HW,2013-03-03 05:57:00,
2013-03-02 22:02:00,43.7,35.3,30.12,WSW,248,1.6,2.7,72,0.00,,,0.00,WUHU216HW,2013-03-03 06:02:00,
2013-03-02 22:07:00,43.6,35.5,30.12,WSW,248,0.9,2.5,73,0.00,,,0.00,WUHU216HW,2013-03-03 06:07:00,
2013-03-02 22:12:00,43.6,35.5,30.12,WSW,248,1.1,2.5,73,0.00,,,0.00,WUHU216HW,2013-03-03 06:12:00,
2013-03-02 22:17:00,43.4,35.3,30.12,West,270,7.6,7.6,73,0.00,,,0.00,WUHU216HW,2013-03-03 06:17:00,
2013-03-02 22:22:00,43.6,35.5,30.12,WSW,248,3.6,7.6,73,0.00,,,0.00,WUHU216HW,2013-03-03 06:22:00,
2013-03-02 22:27:00,43.6,35.2,30.12,West,270,2.5,6.3,72,0.00,,,0.00,WUHU216HW,2013-03-03 06:27:00,
2013-03-02 22:32:00,43.6,35.2,30.12,WSW,248,3.6,5.8,72,0.00,,,0.00,WUHU216HW,2013-03-03 06:32:00,
2013-03-02 22:37:00,43.4,35.0,30.12,West,270,1.8,5.8,72,0.00,,,0.00,WUHU216HW,2013-03-03 06:37:00,
2013-03-02 22:42:00,43.2,34.8,30.12,West,270,1.3,3.1,72,0.00,,,0.00,WUHU216HW,2013-03-03 06:42:00,
2013-03-02 22:47:00,43.2,34.8,30.12,West,270,2.5,3.8,72,0.00,,,0.00,WUHU216HW,2013-03-03 06:47:00,
2013-03-02 22:52:00,43.2,34.8,30.12,WSW,248,2.7,4.5,72,0.00,,,0.00,WUHU216HW,2013-03-03 06:52:00,
2013-03-02 22:57:00,43.6,34.5,30.11,West,270,9.8,9.8,70,0.00,,,0.00,WUHU216HW,2013-03-03 06:57:00,
2013-03-02 23:02:00,43.7,34.7,30.11,WNW,293,4.3,9.8,70,0.00,,,0.00,WUHU216HW,2013-03-03 07:02:00,
2013-03-02 23:07:00,43.6,34.5,30.11,WSW,248,4.0,9.8,70,0.00,,,0.00,WUHU216HW,2013-03-03 07:07:00,
2013-03-02 23:12:00,43.2,34.5,30.11,WSW,248,5.4,8.5,71,0.00,,,0.00,WUHU216HW,2013-03-03 07:12:00,
2013-03-02 23:17:00,43.2,34.5,30.11,WSW,248,1.8,8.5,71,0.00,,,0.00,WUHU216HW,2013-03-03 07:17:00,
2013-03-02 23:22:00,42.8,33.8,30.11,SW,225,4.0,5.4,70,0.00,,,0.00,WUHU216HW,2013-03-03 07:22:00,
2013-03-02 23:27:00,42.7,34.0,30.11,West,270,6.9,9.8,71,0.00,,,0.00,WUHU216HW,2013-03-03 07:27:00,
2013-03-02 23:32:00,42.7,34.0,30.11,South,180,10.1,10.1,71,0.00,,,0.00,WUHU216HW,2013-03-03 07:32:00,
2013-03-02 23:37:00,42.8,34.2,30.11,SW,225,2.9,12.8,71,0.00,,,0.00,WUHU216HW,2013-03-03 07:37:00,
2013-03-02 23:42:00,42.7,34.0,30.11,SW,225,5.4,12.8,71,0.00,,,0.00,WUHU216HW,2013-03-03 07:42:00,
2013-03-02 23:47:00,42.7,34.3,30.11,SW,225,6.3,10.5,72,0.00,,,0.00,WUHU216HW,2013-03-03 07:47:00,
2013-03-02 23:52:00,42.5,34.1,30.11,WSW,248,6.9,10.5,72,0.00,,,0.00,WUHU216HW,2013-03-03 07:52:00,
2013-03-02 23:57:00,42.3,34.3,30.11,West,270,8.7,9.4,73,0.00,,,0.00,WUHU216HW,2013-03-03 07:57:00,